Stigler, OK

12:23 PM CDT on August 31, 2016 (GMT -0500)
Stigler

Weather History for KGZL - April, 2014

Change the Weather History Date:

Sunday, April 27, 2014

  Actual Average (KJSV) Record (KJSV)
Temperature  
Mean Temperature 72 °F -  
Max Temperature 82 °F 75 °F 89 °F (1987)
Min Temperature 62 °F 52 °F 36 °F (1967)
Cooling Degree Days 7    
Growing Degree Days 22 (Base 50)    
Moisture  
Dew Point 61 °F    
Average Humidity 65    
Maximum Humidity 83    
Minimum Humidity 50    
Precipitation  
Precipitation 0.14 in - - ()
Sea Level Pressure  
Sea Level Pressure 29.50 in    
Wind  
Wind Speed 13 mph (South)    
Max Wind Speed 23 mph    
Max Gust Speed 32 mph    
Visibility 10 miles    
Events Rain    
Averages and records for this station are not official NWS values.
T = Trace of Precipitation, MM = Missing Value Source: NWS Daily Summary

Daily Weather History Graph

Daily Weather History Graph

Search for Another Location

Airport or City:

Trip Planner

Search our weather history database for the weather conditions in past years. The results will help you decide how hot, cold, wet, or windy it might be!

Date:

Astronomy

Apr. 27, 2014 Rise Set
Actual Time 6:33 AM CDT 8:03 PM CDT
Civil Twilight 6:06 AM CDT 8:30 PM CDT
Nautical Twilight 5:34 AM CDT 9:02 PM CDT
Astronomical Twilight 5:00 AM CDT 9:36 PM CDT
Moon 5:30 AM CDT (4/27) 6:41 PM CDT (4/27)
Length of Visible Light 14h 23m
Length of Day
13h 29m
Waning Crescent, 3% of the Moon is Illuminated
Apr 27
Waning Crescent
Apr 29
New
May 6
First Quarter
May 14
Full
May 21
Last Quarter

Hourly Weather History & Observations

Time (CDT) Temp. Heat Index Dew Point Humidity Pressure Visibility Wind Dir Wind Speed Gust Speed Precip Events Conditions
12:15 AM 77.0 °F - 62.6 °F 61% 29.66 in 10.0 mi South 15.0 mph 21.9 mph N/A   Mostly Cloudy
12:35 AM 75.2 °F - 62.6 °F 65% 29.65 in 10.0 mi South 11.5 mph 23.0 mph N/A   Mostly Cloudy
12:55 AM 75.2 °F - 62.6 °F 65% 29.65 in 10.0 mi South 13.8 mph 19.6 mph N/A   Mostly Cloudy
1:15 AM 75.2 °F - 62.6 °F 65% 29.64 in 10.0 mi South 16.1 mph 21.9 mph N/A   Overcast
1:35 AM 75.2 °F - 62.6 °F 65% 29.63 in 10.0 mi SSE 10.4 mph 23.0 mph N/A   Overcast
1:55 AM 75.2 °F - 62.6 °F 65% 29.63 in 10.0 mi South 10.4 mph 19.6 mph N/A   Overcast
2:15 AM 75.2 °F - 62.6 °F 65% 29.62 in 10.0 mi South 10.4 mph 17.3 mph N/A   Overcast
2:35 AM 75.2 °F - 62.6 °F 65% 29.61 in 10.0 mi South 12.7 mph 20.7 mph N/A   Overcast
2:55 AM 73.4 °F - 60.8 °F 65% 29.60 in 10.0 mi South 12.7 mph 21.9 mph N/A   Mostly Cloudy
3:15 AM 73.4 °F - 59.0 °F 61% 29.60 in 10.0 mi South 13.8 mph 20.7 mph N/A   Mostly Cloudy
3:35 AM 73.4 °F - 59.0 °F 61% 29.59 in 10.0 mi South 10.4 mph 23.0 mph N/A   Scattered Clouds
3:55 AM 73.4 °F - 57.2 °F 57% 29.59 in 10.0 mi South 10.4 mph - N/A   Partly Cloudy
4:15 AM 71.6 °F - 57.2 °F 60% 29.60 in 10.0 mi South 13.8 mph 19.6 mph N/A   Partly Cloudy
4:35 AM 73.4 °F - 59.0 °F 61% 29.60 in 10.0 mi South 16.1 mph 23.0 mph N/A   Mostly Cloudy
4:55 AM 73.4 °F - 59.0 °F 61% 29.60 in 10.0 mi South 12.7 mph 20.7 mph N/A   Overcast
5:15 AM 73.4 °F - 59.0 °F 61% 29.60 in 10.0 mi South 8.1 mph 19.6 mph N/A   Overcast
5:35 AM 73.4 °F - 59.0 °F 61% 29.59 in 10.0 mi South 9.2 mph 17.3 mph N/A   Overcast
5:55 AM 73.4 °F - 60.8 °F 65% 29.58 in 10.0 mi South 10.4 mph 17.3 mph N/A   Overcast
6:15 AM 73.4 °F - 60.8 °F 65% 29.58 in 10.0 mi South 10.4 mph 16.1 mph N/A   Overcast
6:35 AM 73.4 °F - 60.8 °F 65% 29.57 in 10.0 mi South 9.2 mph 17.3 mph N/A   Overcast
6:55 AM 73.4 °F - 60.8 °F 65% 29.57 in 10.0 mi South 13.8 mph 19.6 mph N/A   Overcast
7:15 AM 73.4 °F - 62.6 °F 69% 29.55 in 10.0 mi South 12.7 mph 17.3 mph N/A   Overcast
7:35 AM 73.4 °F - 62.6 °F 69% 29.54 in 10.0 mi South 13.8 mph 20.7 mph N/A   Overcast
7:55 AM 73.4 °F - 62.6 °F 69% 29.54 in 10.0 mi South 12.7 mph 21.9 mph N/A   Overcast
8:15 AM 73.4 °F - 62.6 °F 69% 29.52 in 10.0 mi South 15.0 mph 20.7 mph N/A   Overcast
8:35 AM 73.4 °F - 62.6 °F 69% 29.54 in 10.0 mi SSW 12.7 mph 20.7 mph N/A   Overcast
9:15 AM 73.4 °F - 62.6 °F 69% 29.54 in 10.0 mi South 17.3 mph 23.0 mph N/A   Overcast
9:35 AM 75.2 °F - 62.6 °F 65% 29.55 in 10.0 mi SSW 11.5 mph 24.2 mph N/A   Overcast
9:55 AM 75.2 °F - 62.6 °F 65% 29.54 in 10.0 mi SSW 13.8 mph 21.9 mph N/A   Mostly Cloudy
10:15 AM 77.0 °F - 62.6 °F 61% 29.53 in 10.0 mi SSW 16.1 mph 24.2 mph N/A   Partly Cloudy
10:35 AM 77.0 °F - 64.4 °F 65% 29.54 in 10.0 mi SSW 17.3 mph 25.3 mph N/A   Mostly Cloudy
10:55 AM 75.2 °F - 64.4 °F 69% 29.52 in 10.0 mi South 16.1 mph 20.7 mph N/A   Mostly Cloudy
11:15 AM 73.4 °F - 64.4 °F 73% 29.50 in 10.0 mi South 16.1 mph 24.2 mph N/A   Mostly Cloudy
11:35 AM 73.4 °F - 64.4 °F 73% 29.53 in 9.0 mi South 13.8 mph 24.2 mph N/A   Partly Cloudy
11:55 AM 71.6 °F - 64.4 °F 78% 29.52 in 10.0 mi South 16.1 mph 24.2 mph N/A   Clear
12:15 PM 71.6 °F - 64.4 °F 78% 29.53 in 9.0 mi South 13.8 mph 19.6 mph N/A Rain Light Rain
12:35 PM 71.6 °F - 66.2 °F 83% 29.50 in 10.0 mi South 12.7 mph 17.3 mph N/A Rain Light Rain
12:55 PM 75.2 °F - 66.2 °F 73% 29.50 in 10.0 mi SSW 13.8 mph 19.6 mph N/A   Partly Cloudy
1:15 PM 77.0 °F - 66.2 °F 69% 29.48 in 10.0 mi South 13.8 mph 24.2 mph N/A   Partly Cloudy
1:35 PM 78.8 °F - 64.4 °F 61% 29.47 in 10.0 mi South 19.6 mph 25.3 mph N/A   Mostly Cloudy
1:55 PM 80.6 °F 82.3 °F 64.4 °F 58% 29.46 in 10.0 mi South 19.6 mph 24.2 mph N/A   Mostly Cloudy
2:15 PM 80.6 °F 82.3 °F 64.4 °F 58% 29.47 in 10.0 mi South 18.4 mph 24.2 mph N/A   Mostly Cloudy
2:35 PM 80.6 °F 82.3 °F 64.4 °F 58% 29.46 in 9.0 mi SSW 17.3 mph 28.8 mph N/A   Scattered Clouds
2:55 PM 80.6 °F 82.3 °F 64.4 °F 58% 29.45 in 10.0 mi SSW 16.1 mph 25.3 mph N/A   Scattered Clouds
3:15 PM 80.6 °F 82.3 °F 64.4 °F 58% 29.44 in 9.0 mi South 15.0 mph 23.0 mph N/A   Scattered Clouds
3:35 PM 82.4 °F 83.9 °F 64.4 °F 54% 29.42 in 9.0 mi South 18.4 mph 23.0 mph N/A   Scattered Clouds
3:55 PM 82.4 °F 83.9 °F 64.4 °F 54% 29.42 in 9.0 mi South 12.7 mph 24.2 mph N/A   Partly Cloudy
4:15 PM 82.4 °F 83.4 °F 62.6 °F 51% 29.41 in 9.0 mi SSW 13.8 mph 27.6 mph N/A   Partly Cloudy
4:35 PM 82.4 °F 83.4 °F 62.6 °F 51% 29.39 in 9.0 mi South 19.6 mph 24.2 mph N/A   Partly Cloudy
4:55 PM 80.6 °F 82.3 °F 64.4 °F 58% 29.40 in 9.0 mi South 11.5 mph 21.9 mph N/A   Partly Cloudy
5:15 PM 77.0 °F - 64.4 °F 65% 29.40 in 5.0 mi South 11.5 mph 24.2 mph N/A Rain Light Rain
5:35 PM 77.0 °F - 64.4 °F 65% 29.39 in 8.0 mi SSW 11.5 mph 17.3 mph N/A   Clear
5:55 PM 77.0 °F - 60.8 °F 57% 29.39 in 10.0 mi South 11.5 mph 19.6 mph N/A   Clear
6:15 PM 77.0 °F - 57.2 °F 50% 29.40 in 10.0 mi South 12.7 mph 17.3 mph N/A   Clear
6:35 PM 77.0 °F - 59.0 °F 54% 29.40 in 10.0 mi South 10.4 mph 17.3 mph N/A   Clear
6:55 PM 75.2 °F - 59.0 °F 57% 29.39 in 10.0 mi South 9.2 mph - N/A   Clear
7:15 PM 73.4 °F - 59.0 °F 61% 29.40 in 10.0 mi South 8.1 mph - N/A   Clear
7:35 PM 73.4 °F - 59.0 °F 61% 29.39 in 10.0 mi SSE 10.4 mph - N/A   Clear
7:55 PM 73.4 °F - 57.2 °F 57% 29.40 in 10.0 mi South 8.1 mph - N/A   Clear
8:15 PM 71.6 °F - 57.2 °F 60% 29.39 in 10.0 mi South 4.6 mph - N/A   Clear
8:35 PM 71.6 °F - 57.2 °F 60% 29.38 in 10.0 mi South 3.5 mph - N/A   Mostly Cloudy
8:55 PM 68.0 °F - 62.6 °F 83% 29.44 in 4.0 mi WSW 23.0 mph 32.2 mph 0.05 in Rain Light Rain
9:15 PM 64.4 °F - 57.2 °F 77% 29.41 in 7.0 mi South 15.0 mph 29.9 mph 0.08 in Rain Light Rain
9:35 PM 64.4 °F - 57.2 °F 77% 29.41 in 10.0 mi South 12.7 mph 26.5 mph 0.08 in   Mostly Cloudy
9:55 PM 62.6 °F - 57.2 °F 82% 29.43 in 10.0 mi SSE 10.4 mph - 0.08 in   Mostly Cloudy
10:15 PM 62.6 °F - 57.2 °F 82% 29.44 in 10.0 mi SSE 8.1 mph - N/A   Mostly Cloudy
10:35 PM 62.6 °F - 55.4 °F 77% 29.44 in 10.0 mi SSE 9.2 mph - N/A   Mostly Cloudy
10:55 PM 62.6 °F - 55.4 °F 77% 29.43 in 10.0 mi SE 8.1 mph - N/A   Overcast
11:15 PM 62.6 °F - 55.4 °F 77% 29.43 in 10.0 mi South 8.1 mph - N/A   Scattered Clouds
11:35 PM 62.6 °F - 55.4 °F 77% 29.43 in 10.0 mi South 5.8 mph - 0.01 in   Partly Cloudy
11:55 PM 62.6 °F - 53.6 °F 72% 29.44 in 10.0 mi Calm Calm - 0.01 in   Mostly Cloudy